User: anonymous   Login
Location: Unspecified
(0.0000°N, 0.0000°E)
Time: 13:46:03
(UTC+00:00)
Language:

ITUPSAT 1 - Orbit

View from above orbital plane
View from above orbital plane
View from above satellite
View from above satellite

Ground track
Ground track

The orbit data is extracted from the following two-line orbital elements,

1 35935U 09051E   17114.89507880 +.00000269 +00000-0 +72995-4 0  9992
2 35935 098.5017 254.0015 0009233 066.3276 293.8889 14.55310565402458
Epoch (UTC): 24 April 2017 21:28:54
Eccentricity: 0.0009233
inclination: 98.5017°
perigee height: 702 km
apogee height: 715 km
right ascension of ascending node: 254.0015°
argument of perigee: 66.3276°
revolutions per day: 14.55310565
mean anomaly at epoch: 293.8889°
orbit number at epoch: 40245

The dashed part of the orbit path shows where the satellite is in the earth's shadow,  

DLR